AAL337 KGRR-KORD

Flight info

Callsign AAL337
Flight time 0h 27m
Altitude 18000
Route WLTER WYNDE WYNDE3
Aircraft A319/M-VGDW/C

Departure

Time 2026-05-06 02:09
Airport Gerald R. Ford International Airport (KGRR)

Arrival

Time 2026-05-06 02:36
Airport Chicago O'Hare International Airport (KORD)
Time Latitude Longitude Altitude Speed Heading
2026-05-06 02:05 42.88308 -85.52838 797 ft 2 kts 230°
2026-05-06 02:06 42.88318 -85.52821 796 ft 2 kts 228°
2026-05-06 02:06 42.88330 -85.52806 796 ft 2 kts 201°
2026-05-06 02:06 42.88339 -85.52806 796 ft 0 kts 164°
2026-05-06 02:06 42.88305 -85.52790 796 ft 15 kts 162°
2026-05-06 02:07 42.88149 -85.52744 798 ft 28 kts 169°
2026-05-06 02:07 42.88031 -85.52567 798 ft 36 kts 77°
2026-05-06 02:07 42.88069 -85.52235 798 ft 37 kts 82°
2026-05-06 02:07 42.88060 -85.52069 797 ft 17 kts 169°
2026-05-06 02:08 42.87925 -85.52103 797 ft 33 kts 231°
2026-05-06 02:08 42.87856 -85.52509 800 ft 79 kts 262°
2026-05-06 02:08 42.87733 -85.53589 830 ft 147 kts 260°
2026-05-06 02:08 42.87459 -85.55163 1086 ft 194 kts 248°
2026-05-06 02:09 42.86851 -85.57080 1325 ft 240 kts 245°
2026-05-06 02:09 42.86113 -85.59185 2207 ft 251 kts 245°
2026-05-06 02:09 42.85323 -85.61314 2968 ft 254 kts 244°
2026-05-06 02:09 42.84502 -85.63443 3708 ft 259 kts 244°
2026-05-06 02:10 42.83642 -85.65607 4469 ft 259 kts 244°
2026-05-06 02:10 42.82765 -85.67762 5231 ft 262 kts 244°
2026-05-06 02:10 42.81872 -85.69926 5996 ft 260 kts 244°
2026-05-06 02:10 42.80979 -85.72066 6734 ft 260 kts 244°
2026-05-06 02:11 42.80097 -85.74201 7459 ft 256 kts 243°
2026-05-06 02:11 42.79242 -85.76302 8215 ft 252 kts 243°
2026-05-06 02:11 42.78406 -85.78396 8985 ft 250 kts 244°
2026-05-06 02:11 42.77584 -85.80500 9770 ft 263 kts 244°
2026-05-06 02:12 42.76709 -85.82785 10479 ft 281 kts 244°
2026-05-06 02:12 42.75781 -85.85224 11194 ft 298 kts 244°
2026-05-06 02:12 42.74803 -85.87797 11937 ft 314 kts 244°
2026-05-06 02:12 42.73780 -85.90496 12686 ft 327 kts 244°
2026-05-06 02:13 42.72718 -85.93297 13519 ft 338 kts 244°
2026-05-06 02:13 42.71624 -85.96181 14273 ft 348 kts 244°
2026-05-06 02:13 42.70499 -85.99137 15018 ft 356 kts 244°
2026-05-06 02:13 42.69342 -86.02172 15586 ft 369 kts 244°
2026-05-06 02:14 42.68155 -86.05287 15823 ft 378 kts 244°
2026-05-06 02:14 42.66948 -86.08456 15931 ft 377 kts 244°
2026-05-06 02:14 42.65739 -86.11630 15977 ft 379 kts 244°
2026-05-06 02:14 42.64529 -86.14814 15998 ft 379 kts 244°
2026-05-06 02:15 42.63321 -86.17995 16002 ft 378 kts 244°
2026-05-06 02:15 42.62120 -86.21166 16006 ft 378 kts 244°
2026-05-06 02:15 42.60915 -86.24352 16007 ft 380 kts 244°
2026-05-06 02:15 42.59710 -86.27539 16004 ft 379 kts 244°
2026-05-06 02:16 42.58511 -86.30718 16001 ft 378 kts 244°
2026-05-06 02:16 42.57327 -86.33859 16002 ft 379 kts 244°
2026-05-06 02:16 42.56128 -86.37047 16003 ft 380 kts 244°
2026-05-06 02:16 42.55071 -86.39859 16001 ft 379 kts 244°
2026-05-06 02:17 42.53876 -86.43045 16004 ft 379 kts 244°
2026-05-06 02:17 42.52684 -86.46226 16044 ft 378 kts 245°
2026-05-06 02:17 42.51486 -86.49434 15694 ft 382 kts 245°
2026-05-06 02:17 42.50295 -86.52624 15342 ft 377 kts 245°
2026-05-06 02:18 42.49113 -86.55793 15008 ft 377 kts 245°
2026-05-06 02:18 42.47932 -86.58962 14672 ft 376 kts 245°
2026-05-06 02:18 42.46775 -86.62074 14338 ft 374 kts 245°
2026-05-06 02:18 42.45606 -86.65217 14011 ft 374 kts 245°
2026-05-06 02:19 42.44435 -86.68365 13682 ft 374 kts 245°
2026-05-06 02:19 42.43269 -86.71499 13313 ft 371 kts 245°
2026-05-06 02:19 42.42113 -86.74612 12942 ft 369 kts 245°
2026-05-06 02:19 42.41137 -86.77251 12636 ft 368 kts 245°
2026-05-06 02:20 42.38964 -86.83148 11950 ft 364 kts 245°
2026-05-06 02:20 42.37807 -86.86187 11602 ft 364 kts 241°
2026-05-06 02:20 42.36438 -86.89003 11259 ft 363 kts 237°
2026-05-06 02:21 42.34972 -86.91772 10913 ft 361 kts 236°
2026-05-06 02:21 42.33486 -86.94502 10576 ft 359 kts 235°
2026-05-06 02:21 42.32001 -86.97205 10284 ft 357 kts 235°
2026-05-06 02:21 42.30521 -86.99888 10151 ft 356 kts 235°
2026-05-06 02:22 42.29040 -87.02577 10089 ft 357 kts 235°
2026-05-06 02:22 42.27559 -87.05264 10063 ft 356 kts 235°
2026-05-06 02:22 42.26081 -87.07954 10051 ft 357 kts 235°
2026-05-06 02:22 42.24621 -87.10617 10042 ft 358 kts 235°
2026-05-06 02:23 42.23141 -87.13316 10034 ft 357 kts 235°
2026-05-06 02:23 42.22144 -87.15137 10031 ft 357 kts 235°
2026-05-06 02:24 42.15982 -87.26410 9672 ft 314 kts 235°
2026-05-06 02:24 42.14721 -87.28713 9293 ft 297 kts 235°
2026-05-06 02:24 42.13520 -87.30897 8911 ft 283 kts 235°
2026-05-06 02:25 42.12387 -87.32955 8546 ft 272 kts 235°
2026-05-06 02:25 42.11279 -87.34964 8185 ft 264 kts 235°
2026-05-06 02:25 42.10187 -87.36945 7812 ft 264 kts 235°
2026-05-06 02:25 42.09090 -87.38934 7458 ft 266 kts 235°
2026-05-06 02:26 42.07984 -87.40940 7100 ft 267 kts 235°
2026-05-06 02:26 42.06874 -87.42949 6749 ft 268 kts 235°
2026-05-06 02:26 42.05755 -87.44973 6391 ft 271 kts 236°
2026-05-06 02:26 42.04622 -87.47003 6037 ft 271 kts 237°
2026-05-06 02:27 42.03508 -87.48997 5667 ft 269 kts 236°
2026-05-06 02:27 42.02381 -87.50994 5300 ft 267 kts 236°
2026-05-06 02:27 42.01257 -87.52969 4977 ft 260 kts 236°
2026-05-06 02:27 42.00189 -87.54828 4615 ft 244 kts 236°
2026-05-06 02:28 41.99252 -87.56600 4274 ft 229 kts 245°
2026-05-06 02:28 41.98907 -87.58585 4116 ft 214 kts 266°
2026-05-06 02:28 41.98806 -87.60583 4050 ft 214 kts 270°
2026-05-06 02:28 41.98772 -87.62481 4016 ft 192 kts 271°
2026-05-06 02:29 41.98772 -87.64188 4006 ft 183 kts 272°
2026-05-06 02:29 41.98789 -87.65901 4004 ft 183 kts 273°
2026-05-06 02:29 41.98819 -87.67617 3870 ft 187 kts 274°
2026-05-06 02:29 41.98841 -87.69354 3572 ft 184 kts 272°
2026-05-06 02:30 41.98843 -87.71052 3305 ft 180 kts 272°
2026-05-06 02:30 41.98839 -87.72722 3050 ft 178 kts 272°
2026-05-06 02:30 41.98835 -87.74383 2821 ft 176 kts 272°
2026-05-06 02:30 41.98834 -87.75921 2601 ft 153 kts 272°
2026-05-06 02:31 41.98829 -87.77267 2395 ft 138 kts 272°
2026-05-06 02:31 41.98827 -87.78546 2210 ft 137 kts 273°
2026-05-06 02:31 41.98833 -87.79810 2023 ft 136 kts 273°
2026-05-06 02:31 41.98837 -87.81070 1854 ft 135 kts 273°
2026-05-06 02:32 41.98839 -87.82186 1690 ft 136 kts 272°
2026-05-06 02:32 41.98838 -87.83449 1503 ft 136 kts 272°
2026-05-06 02:32 41.98840 -87.84238 1387 ft 136 kts 271°
2026-05-06 02:35 41.98841 -87.85376 1236 ft 137 kts 271°
2026-05-06 02:35 41.98840 -87.86638 1056 ft 136 kts 270°
2026-05-06 02:35 41.98838 -87.87918 880 ft 137 kts 270°
2026-05-06 02:35 41.98838 -87.89179 700 ft 136 kts 268°
2026-05-06 02:36 41.98833 -87.90365 670 ft 107 kts 270°
2026-05-06 02:36 41.98829 -87.91076 670 ft 61 kts 271°
2026-05-06 02:36 41.98788 -87.91494 668 ft 28 kts 239°
2026-05-06 02:36 41.98695 -87.91693 668 ft 22 kts 249°
2026-05-06 02:37 41.98632 -87.91818 668 ft 9 kts 191°
2026-05-06 02:37 41.98513 -87.91821 669 ft 25 kts 183°
2026-05-06 02:37 41.98360 -87.91827 670 ft 20 kts 173°
2026-05-06 02:37 41.98272 -87.91760 670 ft 16 kts 81°
2026-05-06 02:38 41.98287 -87.91550 670 ft 23 kts 88°
2026-05-06 02:38 41.98288 -87.91347 671 ft 21 kts 90°
2026-05-06 02:38 41.98288 -87.91156 669 ft 19 kts 88°
2026-05-06 02:38 41.98287 -87.90954 668 ft 21 kts 92°
2026-05-06 02:39 41.98286 -87.90787 668 ft 15 kts 89°
2026-05-06 02:39 41.98287 -87.90621 668 ft 17 kts 89°
2026-05-06 02:39 41.98288 -87.90426 668 ft 21 kts 91°
2026-05-06 02:39 41.98287 -87.90255 669 ft 16 kts 90°
2026-05-06 02:40 41.98286 -87.90126 669 ft 12 kts 91°
2026-05-06 02:40 41.98287 -87.89989 669 ft 22 kts 86°
2026-05-06 02:40 41.98289 -87.89824 670 ft 6 kts 92°
2026-05-06 02:40 41.98289 -87.89803 670 ft 0 kts 90°
2026-05-06 02:41 41.98289 -87.89726 670 ft 22 kts 92°
2026-05-06 02:41 41.98243 -87.89502 669 ft 30 kts 142°
2026-05-06 02:42 41.98096 -87.89341 669 ft 23 kts 159°
2026-05-06 02:42 41.97984 -87.89449 669 ft 33 kts 232°
2026-05-06 02:42 41.97816 -87.89525 669 ft 24 kts 180°
2026-05-06 02:42 41.97653 -87.89527 669 ft 29 kts 180°
2026-05-06 02:43 41.97447 -87.89531 669 ft 27 kts 188°
2026-05-06 02:43 41.97348 -87.89638 669 ft 14 kts 288°
2026-05-06 02:43 41.97385 -87.89672 669 ft 0 kts 343°